GW3739 Weather Reports


time (UTC)temp
C
wind
direction
speed
KPH
gust
KPH
rain 1hr
cm
rain 24hr
cm
rain mn
cm
humidity
%
barometer
mb
20260905224518 31 277 3.2 17.7 0.00 0.00 0.00 70 1012.2
20260905223717 32 315 3.2 17.7 0.00 0.00 0.00 70 1012.0
20260905222400 32 308 3.2 17.7 0.00 0.00 0.00 68 1009.9
20260905221600 33 283 4.8 17.7 0.00 0.00 0.00 66 1011.8
20260905220759 32 341 0.0 17.7 0.00 0.00 0.00 69 1011.9
20260905214926 33 302 1.6 17.7 0.00 0.00 0.00 66 1011.6
20260905214125 33 318 3.2 17.7 0.00 0.00 0.00 65 1011.9
20260905213324 33 298 1.6 17.7 0.00 0.00 0.00 67 1011.6
20260905212523 33 340 1.6 17.7 0.00 0.00 0.00 66 1011.6
20260905211722 33 304 1.6 17.7 0.00 0.00 0.00 66 1011.7
20260905210922 33 317 1.6 17.7 0.00 0.00 0.00 68 1011.7
20260905210122 33 299 1.6 17.7 0.00 0.00 0.00 66 1010.9
20260905205322 34 345 1.6 17.7 0.00 0.00 0.00 65 1012.0
20260905204522 34 334 3.2 17.7 0.00 0.00 0.00 63 1012.5
20260905203722 33 305 3.2 17.7 0.00 0.00 0.00 64 1012.0
20260905202923 34 296 1.6 17.7 0.00 0.00 0.00 63 1012.3
20260905202121 34 339 3.2 17.7 0.00 0.00 0.00 63 1012.2
20260905200248 34 342 1.6 17.7 0.00 0.00 0.00 63 1011.8
20260905195448 33 308 1.6 17.7 0.00 0.00 0.00 67 1010.1
20260905194131 33 303 0.0 17.7 0.00 0.00 0.00 68 1010.6
20260905193332 33 313 0.0 17.7 0.00 0.00 0.00 67 1012.8
20260905192014 33 325 1.6 17.7 0.00 0.00 0.00 67 1010.4
20260905191213 33 316 0.0 17.7 0.00 0.00 0.00 70 1013.1
20260905190412 32 328 0.0 17.7 0.00 0.00 0.00 72 1010.4
20260905185058 32 305 0.0 17.7 0.00 0.00 0.00 72 1012.7
20260905184258 33 343 0.0 17.7 0.00 0.00 0.00 69 1013.0
20260905183457 33 329 0.0 17.7 0.00 0.00 0.00 70 1013.2
20260905182655 34 269 0.0 17.7 0.00 0.00 0.00 64 1013.2
20260905181854 33 168 0.0 17.7 0.00 0.00 0.00 67 1013.3
20260905181054 33 303 0.0 17.7 0.00 0.00 0.00 69 1013.2
20260905175736 34 119 3.2 17.7 0.00 0.00 0.00 67 1011.0
20260905174936 34 126 0.0 17.7 0.00 0.00 0.00 67 1013.4
20260905174135 33 340 0.0 17.7 0.00 0.00 0.00 69 1013.7
20260905172305 32 213 0.0 17.7 0.00 0.00 0.00 68 1013.9
20260905171502 33 306 1.6 17.7 0.00 0.00 0.00 67 1013.8
20260905170702 33 332 0.0 17.7 0.00 0.00 0.00 69 1011.9
20260905165901 32 274 0.0 17.7 0.00 0.00 0.00 66 1011.6
20260905165057 32 336 1.6 17.7 0.00 0.00 0.00 70 1013.7
20260905163740 32 41 0.0 17.7 0.00 0.00 0.00 71 1013.9
20260905162939 32 103 0.0 17.7 0.00 0.00 0.00 73 1013.1
20260905162139 32 85 1.6 17.7 0.00 0.00 0.00 74 1011.4
20260905161338 31 217 0.0 17.7 0.00 0.00 0.00 75 1013.6
20260905160537 31 141 0.0 17.7 0.00 0.00 0.00 78 1013.8
20260905155736 30 185 0.0 17.7 0.00 0.00 0.00 76 1014.2
20260905154419 29 133 0.0 17.7 0.00 0.00 0.00 82 1014.0
20260905153102 28 13 0.0 17.7 0.00 0.00 0.00 81 1011.5
20260905151745 29 114 0.0 17.7 0.00 0.00 0.00 78 1011.6
20260905150945 30 64 0.0 17.7 0.00 0.00 0.00 77 1011.7
20260905150144 29 86 1.6 17.7 0.00 0.00 0.00 78 1011.8
20260905145343 28 86 1.6 17.7 0.00 0.00 0.00 79 1014.4
20260905144543 28 89 0.0 17.7 0.00 0.00 0.00 80 1011.7
20260905143742 28 108 3.2 17.7 0.00 0.00 0.00 79 1014.1
20260905142941 30 92 1.6 17.7 0.00 0.00 0.00 76 1014.0
20260905142140 31 138 0.0 17.7 0.00 0.00 0.00 74 1011.3
20260905140823 31 227 0.0 17.7 0.00 0.00 0.00 72 1012.0
20260905140022 31 202 0.0 17.7 0.00 0.00 0.00 75 1011.3
20260905135221 30 202 0.0 17.7 0.00 0.00 0.00 76 1013.5
20260905133904 30 202 0.0 17.7 0.00 0.00 0.00 77 1013.9
20260905133103 29 202 0.0 17.7 0.00 0.00 0.00 81 1013.4
20260905132305 28 202 0.0 17.7 0.00 0.00 0.00 83 1013.5
20260905131503 27 202 0.0 17.7 0.00 0.00 0.00 85 1011.4
20260905130703 27 203 0.0 17.7 0.00 0.00 0.00 86 1011.4
20260905125903 26 209 0.0 17.7 0.00 0.00 0.00 87 1014.0
20260905125103 26 210 0.0 17.7 0.00 0.00 0.00 88 1013.7
20260905123747 25 209 0.0 17.7 0.00 0.00 0.00 90 1014.0
20260905122946 24 205 0.0 17.7 0.00 0.00 0.00 91 1013.5
20260905122146 23 163 0.0 17.7 0.00 0.00 0.00 91 1013.3
20260905121345 23 228 0.0 17.7 0.00 0.00 0.00 92 1013.4
20260905120544 23 234 0.0 17.7 0.00 0.00 0.00 92 1011.1
20260905115744 23 233 0.0 17.7 0.00 0.00 0.00 92 1011.4
20260905114943 23 231 0.0 17.7 0.00 0.00 0.00 92 1013.4
20260905113628 23 229 0.0 17.7 0.00 0.00 0.00 92 1013.6
20260905112828 23 231 0.0 17.7 0.00 0.00 0.00 93 1013.0
20260905112027 23 230 0.0 17.7 0.00 0.00 0.00 93 1013.3
20260905111227 23 229 0.0 17.7 0.00 0.00 0.00 93 1013.1
20260905105912 23 230 0.0 17.7 0.00 0.00 0.00 93 1013.7
20260905105111 23 229 0.0 17.7 0.00 0.00 0.00 93 1013.5
20260905104311 23 230 0.0 17.7 0.00 0.00 0.00 93 1013.7
20260905103510 23 230 0.0 17.7 0.00 0.00 0.00 93 1013.9
20260905102709 23 230 0.0 17.7 0.00 0.00 0.00 92 1013.7
20260905101908 23 229 0.0 17.7 0.00 0.00 0.00 92 1013.2
20260905101108 23 228 0.0 17.7 0.00 0.00 0.00 92 1013.1
20260905100308 23 227 0.0 17.7 0.00 0.00 0.00 92 1013.4
20260905095507 23 226 0.0 17.7 0.00 0.00 0.00 92 1011.0
20260905094706 23 227 0.0 17.7 0.00 0.00 0.00 92 1013.6
20260905093905 23 226 0.0 17.7 0.00 0.00 0.00 92 1011.2
20260905092548 23 226 0.0 17.7 0.00 0.00 0.00 92 1013.3
20260905091748 23 226 0.0 17.7 0.00 0.00 0.00 92 1013.2
20260905090947 23 226 0.0 17.7 0.00 0.00 0.00 92 1013.0
20260905090147 23 226 0.0 17.7 0.00 0.00 0.00 92 1012.9
20260905085346 23 226 0.0 17.7 0.00 0.00 0.00 92 1012.9
20260905084546 23 225 0.0 17.7 0.00 0.00 0.00 92 1012.1
20260905083745 23 226 0.0 17.7 0.00 0.00 0.00 92 1013.0
20260905082944 23 225 0.0 17.7 0.00 0.00 0.00 92 1012.6
20260905082145 23 225 0.0 17.7 0.00 0.00 0.00 92 1012.8
20260905081344 23 227 0.0 17.7 0.00 0.00 0.00 92 1011.0
20260905080544 23 227 0.0 17.7 0.00 0.00 0.00 93 1010.7
20260905075743 23 227 0.0 17.7 0.00 0.00 0.00 93 1013.0
20260905074942 23 227 0.0 17.7 0.00 0.00 0.00 92 1012.7
20260905074141 23 227 0.0 17.7 0.00 0.00 0.00 91 1012.7
20260905073340 23 227 0.0 17.7 0.00 0.00 0.00 92 1012.5
20260905072539 23 226 0.0 17.7 0.00 0.00 0.00 92 1010.8
20260905071738 23 225 0.0 17.7 0.00 0.00 0.00 91 1010.5
20260905070937 23 225 0.0 17.7 0.00 0.00 0.00 91 1013.0
20260905070136 23 228 0.0 17.7 0.00 0.00 0.00 90 1013.1
20260905064820 24 228 0.0 17.7 0.00 0.00 0.00 91 1010.7
20260905064018 24 227 0.0 17.7 0.00 0.00 0.00 92 1013.0
20260905063218 24 226 0.0 17.7 0.00 0.00 0.00 91 1013.1
20260905062417 24 227 0.0 17.7 0.00 0.00 0.00 91 1013.0
20260905061102 25 147 0.0 17.7 0.00 0.00 0.00 91 1010.9
20260905060302 25 145 0.0 17.7 0.00 0.00 0.00 91 1013.2
20260905055502 25 144 0.0 17.7 0.00 0.00 0.00 91 1013.3
20260905054700 25 143 0.0 17.7 0.00 0.00 0.00 92 1013.1
20260905053859 25 143 0.0 17.7 0.00 0.00 0.00 92 1013.6
20260905053058 25 143 0.0 17.7 0.00 0.00 0.00 91 1013.4
20260905052258 25 145 0.0 17.7 0.00 0.00 0.00 91 1013.4
20260905051458 25 144 0.0 17.7 0.00 0.00 0.00 90 1011.1
20260905045624 25 145 0.0 17.7 0.00 0.00 0.00 91 1013.1
20260905044824 25 145 0.0 17.7 0.00 0.00 0.00 91 1011.3
20260905044024 25 146 0.0 17.7 0.00 0.00 0.00 91 1013.5
20260905043224 25 146 0.0 17.7 0.00 0.00 0.00 91 1013.4
20260905042423 25 145 0.0 17.7 0.00 0.00 0.00 91 1013.7
20260905041622 25 145 0.0 17.7 0.00 0.00 0.00 90 1013.8
20260905040821 25 145 0.0 17.7 0.00 0.00 0.00 89 1013.6
20260905040020 26 145 0.0 17.7 0.00 0.00 0.00 90 1013.9
20260905035220 26 143 0.0 17.7 0.00 0.00 0.00 91 1014.0
20260905034419 26 144 0.0 17.7 0.00 0.00 0.00 88 1014.0
20260905033102 26 140 0.0 17.7 0.00 0.00 0.00 89 1013.8
20260905032305 26 139 0.0 17.7 0.00 0.00 0.00 90 1013.6
20260905031501 26 139 0.0 17.7 0.00 0.00 0.00 89 1014.1
20260905030700 26 138 0.0 17.7 0.00 0.00 0.00 88 1014.1
20260905025859 26 138 0.0 17.7 0.00 0.00 0.00 90 1013.9
20260905025059 26 138 0.0 17.7 0.00 0.00 0.00 89 1013.7
20260905024258 26 136 0.0 17.7 0.00 0.00 0.00 88 1013.9
20260905023458 26 135 0.0 17.7 0.00 0.00 0.00 87 1013.8
20260905022657 27 133 0.0 17.7 0.00 0.00 0.00 86 1013.7
20260905021856 27 131 0.0 17.7 0.00 0.00 0.00 87 1013.9
20260905020539 27 129 0.0 17.7 0.00 0.00 0.00 86 1013.6
20260905015739 27 126 0.0 17.7 0.00 0.00 0.00 85 1013.4
20260905014938 27 123 0.0 17.7 0.00 0.00 0.00 86 1013.6
20260905012036 27 208 0.0 17.7 0.00 0.00 0.00 85 1013.1
20260905011236 28 206 0.0 17.7 0.00 0.00 0.00 84 1013.1
20260905005404 28 205 0.0 17.7 0.00 0.00 0.00 83 1013.1
20260905003533 29 205 0.0 17.7 0.00 0.00 0.00 80 1013.3
20260905002732 29 205 0.0 17.7 0.00 0.00 0.00 80 1012.9
20260905001931 29 202 0.0 17.7 0.00 0.00 0.00 79 1013.4
20260905001130 30 174 0.0 17.7 0.00 0.00 0.00 80 1013.1
20260905000329 30 159 0.0 17.7 0.00 0.00 0.00 78 1012.8
20260904235529 31 170 0.0 17.7 0.00 0.00 0.00 77 1012.9
20260904234728 31 194 0.0 17.7 0.00 0.00 0.00 75 1013.1
20260904233928 32 202 0.0 17.7 0.00 0.00 0.00 75 1013.3
20260904233127 32 202 0.0 17.7 0.00 0.00 0.00 73 1013.2
20260904232326 33 203 0.0 17.7 0.00 0.00 0.00 68 1013.1
20260904231525 33 202 0.0 17.7 0.00 0.00 0.00 67 1013.3
20260904230210 35 202 0.0 17.7 0.00 0.00 0.00 65 1013.1
20260904225409 36 202 0.0 17.7 0.00 0.00 0.00 63 1012.7